[[{"header":{"parameterUnit":"m.s-1","parameterCategory":1,"la1":30.2991,"la2":30.254,"lo1":-89.0895,"lo2":-89.0444,"dy":0.0017,"dx":0.0017,"nx":28,"ny":28,"refTime":"2023-09-15T21:00:00:Z","depth":0,"parameterNumber":2,"parameterNumberName":"U-component_of_WINDS"},"data":[0,0,0,0,0,0,0,0,0,0,0,0,0,0,0,0,0,0,0,0,0,0,0,0,0,0,0,0,0,0,0,0,0,0,0,0,0,0,0,0,0,0,0,0,0,0,0,0,0,0,0,0,0,0,0,0,0,0,-0.9383,-0.9382,0,-0.9337,-0.9336,-0.9336,-0.9293,-0.9292,-0.9292,-0.9291,-0.9241,-0.924,-0.9239,0,0,0,0,0,0,0,0,0,0,0,0,0,-0.9433,-0.9432,-0.9383,-0.9382,-0.9382,-0.9337,-0.9336,-0.9336,-0.9293,-0.9292,-0.9292,-0.9291,-0.9241,-0.924,-0.9239,0,0,0,0,0,0,0,0,0,0,0,0,0,-0.9401,-0.9432,-0.9383,-0.9355,-0.9352,-0.9337,-0.9336,-0.9335,-0.9293,-0.9292,-0.9291,-0.9291,-0.9242,-0.924,-0.9239,-0.9247,0,0,-0.9235,-0.9235,0,0,0,0,0,0,0,0,-0.9403,-0.9399,-0.936,-0.9357,-0.9354,-0.932,-0.9335,-0.9306,-0.9293,-0.9315,-0.9291,-0.929,-0.9268,-0.9264,-0.9257,-0.9245,-0.9242,-0.9235,-0.9234,-0.9234,-0.9233,0,0,0,0,0,0,0,-0.9405,-0.9401,-0.9365,-0.9359,-0.9356,-0.9344,-0.9339,-0.9329,-0.9296,-0.9313,-0.931,-0.9305,-0.9266,-0.9259,-0.9256,-0.9242,-0.9235,-0.9234,-0.9233,-0.9233,-0.9234,-0.9235,0,0,0,0,0,0,-0.9412,-0.9403,-0.9366,-0.9363,-0.9377,-0.9344,-0.9338,-0.9331,-0.9296,-0.929,-0.9306,-0.9304,-0.9261,-0.9257,-0.9254,-0.9261,-0.9234,-0.9233,-0.9232,-0.9233,-0.9234,-0.9235,0,0,0,0,0,0,-0.9413,-0.9409,-0.9368,-0.9382,-0.9376,-0.9344,-0.9337,-0.9331,-0.9323,-0.9291,-0.9285,-0.9305,-0.926,-0.9256,-0.9249,-0.9258,-0.9232,-0.9231,-0.9232,-0.9234,-0.9235,-0.9274,0,0,0,0,0,0,-0.9415,-0.941,-0.9413,-0.9383,-0.9376,-0.9365,-0.9337,-0.9331,-0.9322,-0.9318,-0.9288,-0.9282,-0.9259,-0.9251,-0.9248,-0.9256,-0.923,-0.9231,-0.9233,-0.9234,-0.9272,-0.9277,-0.9281,0,0,0,0,0,-0.9417,-0.9425,-0.9413,-0.9409,-0.9379,-0.9365,-0.9361,-0.9335,-0.9323,-0.9325,-0.9305,-0.9283,-0.9258,-0.9251,-0.9247,-0.9255,-0.9231,-0.9232,-0.9234,-0.927,-0.9276,-0.9281,0,0,0,0,0,0,-0.9455,-0.942,-0.9407,-0.9405,-0.9389,-0.9358,-0.936,-0.9342,-0.9328,-0.9325,-0.9293,-0.9286,-0.9284,-0.9269,-0.9261,-0.9261,-0.9242,-0.9243,-0.927,-0.9276,-0.928,-0.9283,-0.9229,0,0,0,0,0,-0.9464,-0.9456,-0.9426,-0.9428,-0.9421,-0.9392,-0.9385,-0.9367,-0.9348,-0.9341,-0.9319,-0.9301,-0.9289,-0.9282,-0.9269,-0.9271,-0.9263,-0.9274,-0.9278,-0.9282,-0.9283,-0.9283,-0.9287,-0.9241,-0.9241,-0.9241,0,0,-0.948,-0.9461,-0.9458,-0.9435,-0.942,-0.9413,-0.9386,-0.9379,-0.9374,-0.9339,-0.9332,-0.9317,-0.9294,-0.9292,-0.929,-0.9279,-0.9295,-0.9284,-0.9288,-0.9286,-0.9285,-0.929,-0.9294,-0.9242,-0.9242,-0.9242,0,0,-0.9507,-0.9492,-0.9492,-0.9478,-0.9457,-0.9438,-0.9438,-0.9411,-0.9399,-0.9392,-0.9367,-0.9359,-0.9339,-0.9324,-0.9314,-0.9339,-0.9319,-0.9336,-0.9358,-0.9358,-0.9362,-0.9365,-0.9373,-0.9376,-0.9337,-0.9337,-0.9337,0,-0.9531,-0.9519,-0.9494,-0.9489,-0.948,-0.9451,-0.9451,-0.9438,-0.9413,-0.9407,-0.9396,-0.9372,-0.9354,-0.9349,-0.9355,-0.9348,-0.9347,-0.9338,-0.9363,-0.9366,-0.9369,-0.9376,-0.9379,-0.9339,-0.9339,-0.9339,-0.9338,0,-0.9549,-0.9542,-0.9545,-0.9523,-0.9514,-0.9512,-0.9486,-0.948,-0.9464,-0.9446,-0.944,-0.9419,-0.9401,-0.9399,-0.9382,-0.9391,-0.9385,-0.937,-0.9349,-0.9376,-0.9382,-0.9385,-0.9342,-0.9341,-0.9341,-0.934,0,0,-0.9596,-0.9562,-0.9564,-0.9554,-0.9529,-0.9522,-0.9519,-0.9504,-0.9499,-0.9484,-0.9479,-0.9465,-0.945,-0.9439,-0.9421,-0.9421,-0.9442,-0.9405,-0.9404,-0.9412,-0.945,-0.9462,-0.9465,-0.9429,-0.943,-0.943,-0.9452,0,-0.9619,-0.9611,-0.9589,-0.9588,-0.9581,-0.9555,-0.9552,-0.9536,-0.952,-0.9512,-0.9494,-0.9484,-0.9466,-0.9459,-0.9459,-0.9439,-0.9449,-0.9438,-0.9424,-0.9424,-0.9429,-0.9469,-0.948,-0.9502,-0.9454,-0.9455,-0.9455,0,-0.9643,-0.963,-0.9629,-0.9606,-0.9602,-0.96,-0.9584,-0.9577,-0.9559,-0.9547,-0.9536,-0.9516,-0.9511,-0.9494,-0.9486,-0.9479,-0.9473,-0.9463,-0.9463,-0.9459,-0.944,-0.9465,-0.9508,-0.9511,-0.9459,-0.9459,-0.9458,0,-0.9677,-0.966,-0.9657,-0.9649,-0.9622,-0.9621,-0.961,-0.9591,-0.9584,-0.957,-0.9565,-0.9551,-0.9543,-0.9532,-0.9509,-0.9499,-0.9504,-0.9485,-0.9494,-0.9495,-0.9494,-0.9495,-0.9536,-0.9493,-0.9493,-0.9493,-0.9493,0,-0.9703,-0.9703,-0.9672,-0.967,-0.967,-0.9645,-0.9645,-0.9631,-0.9615,-0.961,-0.9586,-0.9581,-0.9552,-0.9544,-0.9526,-0.9522,-0.9519,-0.9509,-0.9504,-0.9511,-0.9512,-0.9505,-0.9502,-0.9494,-0.9493,-0.9493,-0.9493,0,-0.974,-0.9719,-0.9714,-0.969,-0.9684,-0.9685,-0.9663,-0.966,-0.9644,-0.9638,-0.9635,-0.9609,-0.9599,-0.9576,-0.9559,-0.9547,-0.9547,-0.9539,-0.9553,-0.955,-0.956,-0.9559,-0.9597,-0.9601,-0.9557,-0.9557,-0.9557,0,-0.9757,-0.9757,-0.9733,-0.9728,-0.9718,-0.9711,-0.9704,-0.968,-0.9673,-0.9654,-0.9653,-0.9642,-0.963,-0.9615,-0.9595,-0.9582,-0.9572,-0.9587,-0.957,-0.9577,-0.9571,-0.9571,-0.9571,-0.959,-0.959,-0.9591,-0.9591,0,-0.979,-0.9781,-0.9771,-0.9759,-0.9752,-0.9741,-0.9728,-0.9726,-0.9699,-0.9693,-0.9683,-0.9675,-0.9658,-0.9647,-0.9631,-0.9618,-0.96,-0.9597,-0.9598,-0.9604,-0.9612,-0.9607,-0.9562,-0.9596,-0.9595,-0.9595,-0.9595,-0.9594,-0.9817,-0.9816,-0.9799,-0.979,-0.9779,-0.9769,-0.9765,-0.9749,-0.9741,-0.9726,-0.9713,-0.9704,-0.9687,-0.9664,-0.9654,-0.9646,-0.9637,-0.9639,-0.9639,-0.9639,-0.9642,-0.9615,-0.9643,-0.9643,-0.9643,-0.9643,-0.9643,0,-0.9848,-0.9837,-0.9829,-0.9813,-0.9807,-0.9792,-0.9778,-0.9773,-0.9766,-0.9752,-0.9742,-0.9731,-0.972,-0.97,-0.9687,-0.9685,-0.9677,-0.9682,-0.9682,-0.9679,-0.9651,-0.9651,-0.969,-0.969,-0.969,-0.969,-0.969,-0.969,-0.9864,-0.9861,-0.985,-0.9842,-0.983,-0.9822,-0.9815,-0.9805,-0.9794,-0.9783,-0.9774,-0.9762,-0.9745,-0.9732,-0.9721,-0.9715,-0.9711,-0.972,-0.9711,-0.9685,-0.9681,-0.9677,-0.9676,-0.9719,-0.972,-0.9739,-0.974,-0.974]},{"header":{"parameterUnit":"m.s-1","parameterCategory":1,"la1":30.2991,"la2":30.254,"lo1":-89.0895,"lo2":-89.0444,"dy":0.0017,"dx":0.0017,"nx":28,"ny":28,"refTime":"2023-09-15T21:00:00:Z","depth":0,"parameterNumber":3,"parameterNumberName":"V-component_of_WINDS"},"data":[0,0,0,0,0,0,0,0,0,0,0,0,0,0,0,0,0,0,0,0,0,0,0,0,0,0,0,0,0,0,0,0,0,0,0,0,0,0,0,0,0,0,0,0,0,0,0,0,0,0,0,0,0,0,0,0,0,0,3.2182,3.2183,0,3.2196,3.2196,3.2196,3.221,3.221,3.221,3.221,3.2223,3.2223,3.2223,0,0,0,0,0,0,0,0,0,0,0,0,0,3.2167,3.2167,3.2182,3.2183,3.2183,3.2196,3.2196,3.2196,3.221,3.221,3.221,3.221,3.2222,3.2223,3.2223,0,0,0,0,0,0,0,0,0,0,0,0,0,3.2176,3.2167,3.2182,3.2191,3.2192,3.2196,3.2196,3.2196,3.221,3.221,3.221,3.2211,3.2222,3.2223,3.2223,3.2218,0,0,3.2224,3.2224,0,0,0,0,0,0,0,0,3.2176,3.2177,3.219,3.2191,3.2192,3.2201,3.2195,3.2203,3.221,3.2203,3.221,3.2211,3.2215,3.2216,3.2218,3.2219,3.2219,3.2224,3.2224,3.2224,3.2224,0,0,0,0,0,0,0,3.2175,3.2176,3.2188,3.219,3.2191,3.2194,3.2195,3.2197,3.2207,3.2204,3.2205,3.2206,3.2216,3.2218,3.2218,3.222,3.2224,3.2224,3.2224,3.2224,3.2217,3.2216,0,0,0,0,0,0,3.2173,3.2176,3.2187,3.2188,3.2184,3.2194,3.2196,3.2198,3.2207,3.2209,3.2206,3.2207,3.2217,3.2218,3.2219,3.2213,3.2224,3.2224,3.2224,3.2217,3.2216,3.2216,0,0,0,0,0,0,3.2173,3.2174,3.2187,3.2182,3.2184,3.2194,3.2196,3.2198,3.22,3.2209,3.2211,3.2206,3.2217,3.2218,3.2218,3.2214,3.2224,3.2224,3.2217,3.2217,3.2216,3.2203,0,0,0,0,0,0,3.2173,3.2174,3.2173,3.2182,3.2184,3.2187,3.2196,3.2198,3.22,3.2202,3.2209,3.2211,3.2218,3.2218,3.2218,3.2215,3.2224,3.2218,3.2217,3.2216,3.2204,3.2202,3.2201,0,0,0,0,0,3.2172,3.2169,3.2173,3.2174,3.2183,3.2186,3.2187,3.2195,3.22,3.2199,3.2204,3.2211,3.2214,3.2218,3.2218,3.2215,3.2218,3.2217,3.2217,3.2205,3.2203,3.2201,0,0,0,0,0,0,3.2159,3.217,3.2175,3.2175,3.2179,3.2189,3.2187,3.2193,3.2196,3.2197,3.2207,3.2208,3.2207,3.2211,3.2214,3.221,3.2217,3.2216,3.2208,3.2206,3.2204,3.2204,3.2225,0,0,0,0,0,3.2156,3.2158,3.2168,3.2166,3.2169,3.2177,3.2179,3.2185,3.219,3.2192,3.2198,3.2202,3.2204,3.2205,3.2208,3.2205,3.2206,3.2202,3.2201,3.2199,3.2199,3.2197,3.2195,3.2214,3.2214,3.2214,0,0,3.215,3.2156,3.2157,3.2164,3.2168,3.217,3.2179,3.218,3.2181,3.2192,3.2192,3.2196,3.2202,3.22,3.2199,3.2203,3.2194,3.2198,3.2197,3.2197,3.2196,3.2194,3.2192,3.2213,3.2213,3.2213,0,0,3.214,3.2145,3.2144,3.2148,3.2155,3.2161,3.216,3.2168,3.2172,3.2172,3.218,3.2181,3.2184,3.2188,3.219,3.218,3.2185,3.218,3.2172,3.217,3.2168,3.2167,3.2163,3.2161,3.2179,3.2179,3.2179,0,3.2132,3.2135,3.2143,3.2144,3.2146,3.2156,3.2155,3.2158,3.2165,3.2166,3.217,3.2174,3.2178,3.2177,3.2175,3.2176,3.2176,3.2179,3.2168,3.2167,3.2165,3.2162,3.216,3.2179,3.2179,3.2179,3.2179,0,3.2124,3.2125,3.2124,3.213,3.2132,3.2132,3.214,3.2141,3.2146,3.2151,3.2151,3.2156,3.216,3.216,3.2165,3.2159,3.2161,3.2166,3.2173,3.2163,3.2159,3.2158,3.2178,3.2178,3.2178,3.2178,0,0,3.2106,3.2117,3.2116,3.2119,3.2126,3.2127,3.2127,3.2131,3.2131,3.2135,3.2134,3.2137,3.2141,3.2144,3.2149,3.2147,3.2138,3.2153,3.2153,3.2149,3.2131,3.2127,3.2125,3.2142,3.2142,3.2141,3.2131,0,3.2097,3.2098,3.2105,3.2103,3.2105,3.2113,3.2113,3.2117,3.2121,3.2123,3.2127,3.2128,3.2135,3.2136,3.2135,3.2139,3.2134,3.214,3.2141,3.2141,3.2139,3.2124,3.212,3.2109,3.2129,3.2129,3.2129,0,3.2087,3.2091,3.2089,3.2096,3.2096,3.2096,3.2099,3.21,3.2105,3.2108,3.211,3.2116,3.2115,3.2122,3.212,3.2124,3.2125,3.2127,3.2127,3.2127,3.2134,3.2123,3.2106,3.2105,3.2127,3.2127,3.2127,0,3.2075,3.2078,3.2078,3.208,3.2088,3.2087,3.209,3.2095,3.2096,3.2098,3.2099,3.2102,3.2103,3.2104,3.211,3.2115,3.2108,3.2115,3.211,3.211,3.2109,3.2109,3.2091,3.2109,3.2109,3.2109,3.2109,0,3.2064,3.2062,3.2072,3.2072,3.207,3.2078,3.2076,3.208,3.2083,3.2083,3.2091,3.209,3.2099,3.2099,3.2104,3.2101,3.2102,3.2104,3.2105,3.2104,3.2103,3.2104,3.2105,3.2109,3.2109,3.2109,3.2109,0,3.205,3.2056,3.2056,3.2063,3.2065,3.2063,3.2069,3.2068,3.2073,3.2072,3.2073,3.208,3.208,3.2086,3.2088,3.2091,3.2087,3.209,3.2086,3.2087,3.2082,3.2082,3.2064,3.2062,3.2081,3.2081,3.2081,0,3.2042,3.2042,3.2048,3.2049,3.2052,3.2052,3.2054,3.2061,3.2062,3.2066,3.2065,3.2066,3.2068,3.2068,3.2073,3.2074,3.2077,3.207,3.2077,3.2075,3.2076,3.2076,3.2076,3.2069,3.2069,3.2068,3.2068,0,3.2029,3.2032,3.2034,3.2036,3.2037,3.204,3.2043,3.2042,3.205,3.2051,3.2051,3.2053,3.2054,3.2055,3.2057,3.206,3.2065,3.2066,3.2065,3.2063,3.2061,3.2062,3.2082,3.2067,3.2067,3.2067,3.2067,3.2067,3.2018,3.2017,3.2022,3.2023,3.2026,3.2028,3.2027,3.2032,3.2033,3.2035,3.2039,3.2039,3.2042,3.2045,3.2047,3.2047,3.205,3.2048,3.2048,3.2048,3.2046,3.2061,3.2047,3.2047,3.2047,3.2047,3.2047,0,3.2005,3.2008,3.2009,3.2012,3.2013,3.2018,3.2021,3.2021,3.2021,3.2024,3.2025,3.2025,3.2026,3.203,3.2031,3.203,3.2033,3.203,3.203,3.2031,3.2044,3.2044,3.2028,3.2028,3.2028,3.2028,3.2028,3.2028,3.1998,3.1997,3.2,3.2,3.2003,3.2003,3.2004,3.2006,3.2008,3.2008,3.2009,3.2012,3.2015,3.2016,3.2016,3.2018,3.2017,3.2014,3.2016,3.2028,3.203,3.2032,3.2033,3.2014,3.2014,3.2003,3.2003,3.2003]}]]